Home   Weather   Aurich   Past weeks

Flag for Germany Past Weather in Aurich, Lower Saxony, Germany — Yesterday and Last 2 Weeks

Now
75 °F

Scattered clouds.


Feels Like: 78 °F
Forecast: 53 / 67 °F
Wind: 8 mph from South

Location: Wittmundhaven

Current Time: Sep 25, 2016 at 5:57:29 PM

Latest Report: Sep 25, 2016 at 5:20 PM


Visibility: N/A

Pressure: 29.98 "Hg

Humidity: 44%

Dew Point: 52 °F

Location of AurichLocation

Past Weather in Aurich — Graph

°F

Aurich Temperature Yesterday

Maximum temperature yesterday: 70 °F (at 2:20 PM)
Minimum temperature yesterday: 46 °F (at 4:20 AM)
Average temperature yesterday: 56 °F

High & Low Weather Summary for the Past Weeks

 TemperatureHumidityPressure
High88 °F (Sep 13, 4:20 PM)100% (Sep 12, 7:20 AM)30.27 "Hg (Sep 12, 7:20 AM)
Low46 °F (Sep 24, 4:20 AM)42% (Sep 12, 3:20 PM)29.86 "Hg (Sep 16, 12:20 AM)
Average63 °F75%30.06 "Hg
* Reported Sep 10 4:20 PM — Sep 25 4:20 PM, Aurich, Weather by CustomWeather, © 2016

Note: Actual official high and low records may vary slightly from our data, if they occured in-between our weather recording intervals... More about our weather records

Advertising

Aurich Weather History for the Previous 24 Hours

Scroll right to see more
 ConditionsComfort  
Time TempWeatherWind HumidityBarometerVisibility
4:20 PM
Sun, Sep 25
75 °FPassing clouds.9 mph44%29.98 "HgN/A
3:20 PM75 °FPassing clouds.10 mph44%29.98 "HgN/A
2:20 PM73 °FPassing clouds.13 mph47%29.98 "HgN/A
1:20 PM72 °FPassing clouds.9 mph50%30.01 "HgN/A
12:20 PM68 °FPassing clouds.12 mph56%30.01 "HgN/A
11:20 AM66 °FPassing clouds.9 mph56%30.01 "HgN/A
10:20 AM61 °FPassing clouds.9 mph68%30.04 "HgN/A
9:20 AM57 °FPassing clouds.7 mph72%30.04 "HgN/A
8:20 AM54 °FPassing clouds.6 mph82%30.04 "HgN/A
7:20 AM52 °FPassing clouds.7 mph88%30.07 "HgN/A
6:20 AM52 °FPassing clouds.6 mph82%30.07 "HgN/A
5:20 AM52 °FPassing clouds.6 mph88%30.07 "HgN/A
4:20 AM52 °FPassing clouds.6 mph88%30.09 "HgN/A
3:20 AM55 °FPassing clouds.6 mph77%30.09 "HgN/A
2:20 AM55 °FPassing clouds.6 mph82%30.09 "HgN/A
1:20 AM55 °FPassing clouds.6 mph82%30.12 "HgN/A
12:20 AM55 °FPassing clouds.7 mph82%30.12 "HgN/A
11:20 PM
Sat, Sep 24
55 °FPassing clouds.6 mph88%30.12 "HgN/A
10:20 PM57 °FPassing clouds.3 mph82%30.15 "Hg5 mi
9:20 PM59 °FPassing clouds.2 mph82%30.15 "HgN/A
8:20 PM59 °FPassing clouds.3 mph82%30.15 "HgN/A
7:20 PM63 °FPartly sunny.3 mph73%30.15 "HgN/A
6:20 PM68 °FPartly sunny.3 mph56%30.15 "HgN/A
5:20 PM70 °FPartly sunny.9 mph53%30.15 "HgN/A
Weather by CustomWeather, © 2016

See weather overviewHow to use our weather pages